Flag for Brazil Weather past 2 weeks in Recife, Pernambuco, Brazil

Now
77 °F

Passing clouds.


Feels Like: 78 °F
Forecast: 76 / 81 °F
Wind: 7 mph from Southwest

Location: Recife Aeroporto

Current Time: Jul 6, 2015 at 4:08:25 AM

Latest Report: Jul 6, 2015 at 3:00 AM


Visibility: N/A

Pressure: 29.92 "Hg

Humidity: 83%

Dew point: 72 °F

Location of RecifeLocation

Historic Weather in Recife — Graph

°F

Recife temperature yesterday

Maximum temperature yesterday: 84 °F (at 11:00 AM)
Minimum temperature yesterday: 79 °F (at 12:00 AM)
Average temperature yesterday: 81 °F

Past Weeks' High & Low Weather Summary

 TemperatureHumidityPressure
High84 °F (Jun 21, 12:00 PM)100% (Jun 22, 3:00 AM)30.15 "Hg (Jun 22, 3:00 AM)
Low72 °F (Jun 22, 9:00 PM)58% (Jun 21, 1:00 PM)29.92 "Hg (Jul 3, 3:00 PM)
Average78 °F84%30.02 "Hg
* Reported Jun 21 3:00 AM — Jul 6 3:00 AM, Recife, Weather by CustomWeather, © 2015

Note: Actual official high and low records may vary slightly from our data, if they occured in-between our weather recording intervals... More about our weather records

Advertising

Recife weather history for previous 24 hours

 ConditionsComfort  
Time TempWeatherWind HumidityBarometerVisibility
3:00 AM
Mon, Jul 6
77 °FPassing clouds.7 mph83%29.92 "HgN/A
2:00 AM77 °FPassing clouds.7 mph83%29.92 "HgN/A
1:00 AM79 °FPassing clouds.10 mph79%29.95 "HgN/A
12:00 AM81 °FPassing clouds.10 mph74%29.98 "HgN/A
11:00 PM
Sun, Jul 5
81 °FPartly cloudy.12 mph74%29.98 "HgN/A
10:00 PM79 °FPassing clouds.9 mph79%29.98 "HgN/A
9:00 PM79 °FPassing clouds.12 mph79%29.98 "HgN/A
8:00 PM79 °FPassing clouds.8 mph79%29.95 "HgN/A
7:00 PM81 °FPassing clouds.9 mph74%29.95 "HgN/A
6:00 PM79 °FPassing clouds.12 mph79%29.95 "HgN/A
5:00 PM81 °FPassing clouds.12 mph74%29.92 "HgN/A
4:00 PM82 °FScattered clouds.12 mph70%29.92 "HgN/A
3:00 PM82 °FScattered clouds.12 mph74%29.95 "HgN/A
2:00 PM82 °FScattered clouds.9 mph74%29.95 "HgN/A
1:00 PM84 °FScattered clouds.10 mph70%29.95 "HgN/A
12:00 PM84 °FPassing clouds.10 mph70%29.98 "HgN/A
11:00 AM84 °FScattered clouds.12 mph70%29.98 "HgN/A
10:00 AM82 °FPartly sunny.13 mph79%30.01 "HgN/A
9:00 AM82 °FScattered clouds.8 mph74%30.01 "HgN/A
8:00 AM81 °FScattered clouds.10 mph79%29.98 "HgN/A
7:00 AM81 °FPassing clouds.9 mph79%29.98 "HgN/A
6:00 AM79 °FPassing clouds.7 mph84%29.95 "HgN/A
5:00 AM79 °FPassing clouds.8 mph84%29.95 "HgN/A
4:00 AM79 °FPassing clouds.6 mph89%29.92 "HgN/A
Weather by CustomWeather, © 2015

See weather overviewHow to use our weather pages